Location: NJAA Observatory
(40.6819°N, 74.8979°W)
Time: 15:50:08
(UTC-05:00)

Iridium 4 - Visible Passes

Search period start: 20 December 2014 00:00
Search period end: 30 December 2014 00:00
Orbit: 774 x 777 km, 86.4° (Epoch: 20 December)

Date Brightness Start Highest point End Pass type
(mag) Time Alt. Az. Time Alt. Az. Time Alt. Az.
20 Dec 7.6 17:38:00 10° SW 17:42:24 28° W 17:46:51 10° NNW visible
21 Dec 6.5 17:03:06 10° SSW 17:08:08 51° W 17:13:13 10° N visible
22 Dec 8.6 18:14:14 10° W 18:15:23 11° WNW 18:16:31 10° WNW visible
23 Dec 8.1 17:37:05 10° SW 17:40:53 20° WNW 17:44:42 10° NNW visible
24 Dec 7.2 17:01:46 10° SSW 17:06:32 37° W 17:11:21 10° NNW visible
26 Dec 8.3 17:36:33 10° WSW 17:39:23 15° WNW 17:42:14 10° NW visible
27 Dec 7.7 17:00:36 10° SW 17:04:57 27° W 17:09:20 10° NNW visible
29 Dec 8.6 17:37:19 10° WNW 17:37:55 10° WNW 17:38:31 10° WNW visible
